• In Latvia
  • List of Countries
  • For 7 days
  • Water Temperature
  • Satellite Maps
  • Weather Map
  • Weather Widgets
  • user-avatar
    Login

    Hourly Weather Solden

    Today, 29 April, Saturday

    Time Temperature Precipitation Wind Pressure Humidity
    00:00 -14°C° 0 mm 2 mps 575 mmHg 90%
    01:00 -12°C° 0 mm 2 mps 576 mmHg 87%
    02:00 -12°C° 0 mm 2 mps 576 mmHg 86%
    03:00 -13°C° 0 mm 2 mps 576 mmHg 86%
    04:00 -13°C° 0 mm 2 mps 575 mmHg 85%
    05:00 -10°C° 0 mm 1 mps 576 mmHg 82%
    06:00 -8°C° 0 mm 1 mps 577 mmHg 79%
    07:00 -6°C° 0 mm 1 mps 579 mmHg 75%
    08:00 -3°C° 0 mm 1 mps 579 mmHg 70%
    09:00 -1°C° 0 mm 1 mps 580 mmHg 65%
    10:00 0°C° 0 mm 0 mps 581 mmHg 60%
    11:00 +2°C° 0 mm 1 mps 581 mmHg 60%
    12:00 +3°C° 0 mm 1 mps 581 mmHg 60%
    13:00 +3°C° 0 mm 1 mps 582 mmHg 60%
    14:00 +3°C° 0 mm 1 mps 581 mmHg 62%
    15:00 +3°C° 0 mm 1 mps 581 mmHg 64%
    16:00 +3°C° 0 mm 1 mps 581 mmHg 67%
    17:00 +1°C° 0 mm 1 mps 580 mmHg 74%
    18:00 -1°C° 0 mm 1 mps 579 mmHg 81%
    19:00 -2°C° 0 mm 1 mps 578 mmHg 88%
    20:00 -3°C° 0 mm 1 mps 578 mmHg 91%
    21:00 -6°C° 0 mm 1 mps 578 mmHg 93%
    22:00 -7°C° 0 mm 1 mps 577 mmHg 96%
    23:00 -7°C° 0 mm 1 mps 577 mmHg 96%

    Tomorrow, 30 April, Sunday

    Time Temperature Precipitation Wind Pressure Humidity
    00:00 -7°C° 0 mm 1 mps 578 mmHg 96%
    01:00 -6°C° 0 mm 1 mps 578 mmHg 96%
    02:00 -6°C° 0 mm 1 mps 578 mmHg 96%
    03:00 -6°C° 0 mm 1 mps 577 mmHg 96%
    04:00 -6°C° 0 mm 1 mps 577 mmHg 96%
    05:00 -4°C° 0 mm 1 mps 578 mmHg 92%
    06:00 -3°C° 0 mm 1 mps 579 mmHg 88%
    07:00 -1°C° 0 mm 1 mps 579 mmHg 84%
    08:00 0°C° 0 mm 1 mps 580 mmHg 78%
    09:00 +1°C° 0 mm 2 mps 580 mmHg 73%
    10:00 +2°C° 0 mm 2 mps 581 mmHg 68%
    11:00 +3°C° 0 mm 2 mps 581 mmHg 66%
    12:00 +4°C° 0 mm 2 mps 580 mmHg 64%
    13:00 +4°C° 0 mm 2 mps 580 mmHg 62%
    14:00 +4°C° 0 mm 2 mps 580 mmHg 64%
    15:00 +4°C° 0 mm 2 mps 580 mmHg 65%
    16:00 +4°C° 0 mm 2 mps 579 mmHg 67%
    17:00 +2°C° 0 mm 2 mps 579 mmHg 75%
    18:00 -1°C° 0 mm 2 mps 578 mmHg 83%
    19:00 -2°C° 0 mm 2 mps 577 mmHg 91%
    20:00 -3°C° 0 mm 2 mps 577 mmHg 93%
    21:00 -4°C° 0 mm 2 mps 577 mmHg 95%
    22:00 -5°C° 0 mm 2 mps 577 mmHg 96%
    23:00 -3°C° 0 mm 1 mps 576 mmHg 96%

    Day after tomorrow, 1 May, Monday

    Time Temperature Precipitation Wind Pressure Humidity
    00:00 -3°C° 0 mm 1 mps 576 mmHg 96%
    01:00 -4°C° 0 mm 1 mps 576 mmHg 96%
    02:00 -4°C° 0 mm 1 mps 576 mmHg 96%
    03:00 -4°C° 0 mm 1 mps 575 mmHg 95%
    04:00 -4°C° 0 mm 1 mps 575 mmHg 95%
    05:00 -3°C° 0 mm 1 mps 576 mmHg 91%
    06:00 -2°C° 0 mm 1 mps 577 mmHg 86%
    07:00 0°C° 0 mm 1 mps 577 mmHg 82%
    08:00 +1°C° 0.1 mm 1 mps 578 mmHg 77%
    09:00 +1°C° 0.1 mm 2 mps 578 mmHg 73%
    10:00 +2°C° 0.1 mm 2 mps 579 mmHg 68%
    11:00 +2°C° 0.8 mm 2 mps 579 mmHg 72%
    12:00 +2°C° 0.8 mm 2 mps 579 mmHg 75%
    13:00 +1°C° 0.8 mm 2 mps 579 mmHg 79%
    14:00 -1°C° 2.1 mm 2 mps 579 mmHg 84%
    15:00 -2°C° 2.1 mm 2 mps 579 mmHg 88%
    16:00 -3°C° 2.1 mm 2 mps 578 mmHg 93%
    17:00 -3°C° 1.9 mm 2 mps 578 mmHg 94%
    18:00 -4°C° 1.9 mm 2 mps 578 mmHg 95%
    19:00 -5°C° 1.9 mm 2 mps 578 mmHg 96%
    20:00 -6°C° 0.9 mm 2 mps 578 mmHg 95%
    21:00 -6°C° 0.9 mm 2 mps 578 mmHg 95%
    22:00 -7°C° 0.9 mm 2 mps 578 mmHg 95%
    23:00 -7°C° 0.4 mm 2 mps 578 mmHg 95%

    2 May, Tuesday

    Time Temperature Precipitation Wind Pressure Humidity
    00:00 -7°C° 0.4 mm 2 mps 578 mmHg 94%
    01:00 -7°C° 0.4 mm 2 mps 578 mmHg 94%
    02:00 -8°C° 0.2 mm 2 mps 578 mmHg 94%
    03:00 -8°C° 0.2 mm 2 mps 578 mmHg 94%
    04:00 -8°C° 0.2 mm 2 mps 578 mmHg 94%
    05:00 -6°C° 0.1 mm 1 mps 578 mmHg 93%
    06:00 -6°C° 0.1 mm 1 mps 579 mmHg 92%
    07:00 -4°C° 0.1 mm 1 mps 579 mmHg 91%
    08:00 -2°C° 0 mm 1 mps 580 mmHg 89%
    09:00 -1°C° 0 mm 1 mps 580 mmHg 86%
    10:00 +1°C° 0 mm 1 mps 581 mmHg 84%
    11:00 +1°C° 0.1 mm 1 mps 581 mmHg 83%
    12:00 +2°C° 0.1 mm 1 mps 581 mmHg 83%
    13:00 +2°C° 0.1 mm 1 mps 581 mmHg 82%
    14:00 +1°C° 0.1 mm 2 mps 581 mmHg 83%
    15:00 +1°C° 0.1 mm 2 mps 581 mmHg 83%
    16:00 +1°C° 0.1 mm 2 mps 580 mmHg 84%
    17:00 -1°C° 0.1 mm 2 mps 580 mmHg 87%
    18:00 0°C° 0.1 mm 1 mps 579 mmHg 90%
    19:00 -1°C° 0.1 mm 1 mps 579 mmHg 94%
    20:00 -1°C° 0.1 mm 1 mps 579 mmHg 95%
    21:00 -2°C° 0.1 mm 1 mps 579 mmHg 95%
    22:00 -2°C° 0.1 mm 1 mps 579 mmHg 96%
    23:00 -2°C° 0.3 mm 1 mps 578 mmHg 96%

    3 May, Wednesday

    Time Temperature Precipitation Wind Pressure Humidity
    00:00 -2°C° 0.3 mm 1 mps 578 mmHg 97%
    01:00 -2°C° 0.3 mm 1 mps 578 mmHg 97%
    02:00 -3°C° 0.3 mm 1 mps 577 mmHg 97%
    03:00 -3°C° 0.3 mm 1 mps 577 mmHg 97%
    04:00 -3°C° 0.3 mm 1 mps 577 mmHg 97%
    05:00 -2°C° 0.5 mm 1 mps 577 mmHg 96%
    06:00 -2°C° 0.5 mm 1 mps 578 mmHg 94%
    07:00 -1°C° 0.5 mm 1 mps 578 mmHg 93%
    08:00 -1°C° 1.3 mm 1 mps 578 mmHg 92%
    09:00 0°C° 1.3 mm 1 mps 579 mmHg 91%
    10:00 0°C° 1.3 mm 1 mps 579 mmHg 91%
    11:00 +1°C° 1.1 mm 1 mps 579 mmHg 90%
    12:00 +1°C° 1.1 mm 1 mps 579 mmHg 90%
    13:00 +1°C° 1.1 mm 1 mps 579 mmHg 89%
    14:00 +2°C° 0.4 mm 1 mps 579 mmHg 89%
    15:00 +2°C° 0.4 mm 1 mps 579 mmHg 88%
    16:00 +2°C° 0.4 mm 1 mps 579 mmHg 87%
    17:00 +1°C° 0.4 mm 1 mps 579 mmHg 90%
    18:00 0°C° 0.4 mm 1 mps 579 mmHg 92%
    19:00 -1°C° 0.4 mm 1 mps 578 mmHg 95%
    20:00 -1°C° 0.5 mm 1 mps 578 mmHg 95%
    21:00 -2°C° 0.5 mm 1 mps 578 mmHg 95%
    22:00 -2°C° 0.5 mm 1 mps 578 mmHg 95%
    23:00 -3°C° 0.5 mm 1 mps 578 mmHg 95%

    4 May, Thursday

    Time Temperature Precipitation Wind Pressure Humidity
    00:00 -3°C° 0.5 mm 1 mps 578 mmHg 94%
    01:00 -3°C° 0.5 mm 1 mps 578 mmHg 94%
    02:00 -4°C° 0.3 mm 1 mps 578 mmHg 94%
    03:00 -4°C° 0.3 mm 1 mps 577 mmHg 94%
    04:00 -4°C° 0.3 mm 1 mps 577 mmHg 94%
    05:00 -3°C° 0.3 mm 1 mps 578 mmHg 92%
    06:00 -2°C° 0.3 mm 1 mps 578 mmHg 90%
    07:00 -1°C° 0.3 mm 1 mps 579 mmHg 88%
    08:00 -1°C° 0.2 mm 0 mps 579 mmHg 86%
    09:00 0°C° 0.2 mm 0 mps 579 mmHg 84%
    10:00 +1°C° 0.2 mm 0 mps 580 mmHg 82%
    11:00 +2°C° 0.2 mm 0 mps 580 mmHg 81%
    12:00 +3°C° 0.2 mm 1 mps 580 mmHg 80%
    13:00 +3°C° 0.2 mm 1 mps 580 mmHg 79%
    14:00 +4°C° 0.3 mm 1 mps 580 mmHg 79%
    15:00 +4°C° 0.3 mm 1 mps 579 mmHg 80%
    16:00 +4°C° 0.3 mm 1 mps 579 mmHg 80%
    17:00 +2°C° 0.2 mm 1 mps 579 mmHg 84%
    18:00 +1°C° 0.2 mm 1 mps 578 mmHg 88%
    19:00 -1°C° 0.2 mm 1 mps 578 mmHg 92%
    20:00 -3°C° 0.1 mm 0 mps 577 mmHg 94%
    21:00 -4°C° 0.1 mm 0 mps 577 mmHg 95%
    22:00 -5°C° 0.1 mm 0 mps 577 mmHg 97%
    23:00 -5°C° 0 mm 0 mps 577 mmHg 97%
    Show more